GW1620 Weather Reports


Display with metric or nautical units.
time (UTC)temp
F
wind
direction
speed
MPH
gust
MPH
rain 1hr
in
rain 24hr
in
rain mn
in
humidity
%
barometer
mb
20260505180108 64 92 5.0 15.0 1.11 2.91 2.51 99 1007.6
20260505174558 64 70 7.0 20.0 0.64 2.77 2.03 98 1007.7
20260505173044 65 49 6.0 17.0 0.30 2.44 1.69 98 1007.8
20260505171541 64 94 3.0 14.0 0.19 2.31 1.56 98 1007.4
20260505170041 63 133 8.0 21.0 0.17 2.14 1.40 96 1007.6
20260505164542 63 104 7.0 15.0 0.33 2.31 1.38 99 1007.3
20260505163047 62 163 4.0 20.0 0.46 2.31 1.38 99 1007.3
20260505161540 62 120 10.0 19.0 0.54 2.29 1.37 100 1005.6
20260505153042 59 0 0.0 7.0 0.19 1.85 0.91 99 1008.9
20260505151537 59 295 0.0 0.0 0.13 1.77 0.82 99 1009.0
20260505124539 59 309 3.0 8.0 0.06 1.94 0.46 98 1009.8
20260505123036 59 300 4.0 8.0 0.02 1.90 0.42 98 1009.7
20260505121535 59 271 4.0 10.0 0.00 1.88 0.40 98 1009.6
20260505120042 59 273 5.0 11.0 0.00 1.88 0.40 98 1009.9
20260505114552 59 266 5.0 12.0 0.00 1.88 0.40 98 1010.1
20260505113041 59 261 5.0 11.0 0.00 1.88 0.40 97 1010.3
20260505111542 59 262 4.0 12.0 0.00 1.87 0.39 98 1010.6
20260505101541 58 301 4.0 8.0 0.03 1.87 0.39 98 1011.8
20260505100040 58 271 3.0 9.0 0.03 1.87 0.39 98 1012.1
20260505094543 58 252 4.0 10.0 0.01 1.85 0.37 98 1012.2
20260505093049 58 326 2.0 9.0 0.00 1.85 0.37 98 1012.5
20260505091605 58 245 5.0 12.0 0.00 1.84 0.36 97 1012.4
20260505090044 58 275 5.0 11.0 0.02 1.84 0.36 97 1012.4
20260505084542 59 264 4.0 10.0 0.02 1.84 0.36 97 1012.3
20260505083040 58 316 4.0 10.0 0.02 1.84 0.36 97 1012.4
20260505081549 58 277 3.0 12.0 0.01 1.83 0.35 97 1012.5
20260505080037 59 252 5.0 11.0 0.00 1.81 0.33 96 1012.8
20260505074545 59 260 3.0 7.0 0.00 1.81 0.33 97 1012.8
20260505073045 59 244 4.0 11.0 0.00 1.81 0.33 98 1012.8
20260505071552 59 283 5.0 12.0 0.00 1.81 0.33 98 1012.7
20260505070047 59 289 4.0 10.0 0.00 1.81 0.33 98 1012.7
20260505064541 59 266 4.0 11.0 0.00 1.81 0.33 98 1012.4
20260505063047 58 258 4.0 10.0 0.00 1.81 0.33 98 1012.3
20260505061607 58 259 4.0 10.0 0.00 1.81 0.33 98 1012.3
20260505060046 58 293 5.0 8.0 0.00 1.81 0.33 98 1012.1
20260505054545 58 281 4.0 8.0 0.00 1.81 0.33 98 1011.9
20260505053044 58 263 5.0 13.0 0.00 1.81 0.33 98 1011.8
20260505051604 58 297 5.0 10.0 0.03 1.81 0.33 99 1011.7
20260505041547 58 251 7.0 14.0 0.15 1.77 0.29 98 1010.8
20260505040040 59 274 7.0 13.0 0.23 1.74 0.25 98 1010.7
20260505034546 59 259 6.0 16.0 0.23 1.73 0.25 98 1010.7
20260505033043 59 236 7.0 13.0 0.20 1.70 0.22 98 1010.7
20260505031541 59 294 5.0 10.0 0.12 1.62 0.14 98 1010.9
20260505030038 59 254 5.0 10.0 0.00 1.49 0.01 98 1010.7
20260505024544 60 269 4.0 11.0 0.00 1.49 0.01 98 1010.3
20260505023040 60 255 6.0 13.0 0.00 1.49 0.01 98 1010.4
20260505021550 60 233 6.0 12.0 0.00 1.49 0.01 98 1010.2
20260505020042 60 282 5.0 12.0 0.00 1.49 0.01 98 1010.1
20260505014541 60 274 5.0 12.0 0.00 1.49 0.01 98 1010.2
20260505013041 60 249 5.0 11.0 0.00 1.49 0.01 98 1010.1
20260505011541 60 258 5.0 12.0 0.00 1.49 0.01 98 1010.5
20260505004544 61 255 5.0 11.0 0.00 1.49 0.01 99 1011.1
20260505003041 61 209 5.0 11.0 0.00 1.49 0.01 99 1011.2
20260505001541 62 240 3.0 9.0 0.00 1.49 0.01 99 1011.1
20260505000044 62 279 4.0 9.0 0.00 1.49 0.01 99 1011.2
20260504234546 62 227 2.0 7.0 0.00 1.49 0.01 99 1010.9
20260504233101 62 0 0.0 2.0 0.01 1.49 0.01 99 1011.2
20260504231546 62 282 1.0 4.0 0.01 1.49 0.01 99 1011.0
20260504230051 63 252 3.0 6.0 0.01 1.49 0.01 99 1011.0
20260504224537 63 267 0.0 4.0 0.00 1.48 0.00 99 1010.8
20260504223041 63 256 0.0 3.0 0.00 1.48 0.00 99 1011.1
20260504221543 63 217 0.0 4.0 0.00 1.48 0.00 99 1011.0
20260504220040 63 211 0.0 1.0 0.14 1.48 0.00 99 1011.1
20260504214537 63 0 0.0 4.0 0.16 1.48 1.48 99 1010.9
20260504213034 63 198 1.0 6.0 0.19 1.48 1.48 98 1010.9
20260504211543 63 12 3.0 8.0 0.33 1.47 1.47 98 1011.3
20260504210045 64 212 2.0 7.0 0.18 1.32 1.32 99 1011.5
20260504204547 64 205 5.0 9.0 0.18 1.31 1.31 99 1010.8
20260504203051 64 211 5.0 11.0 0.16 1.27 1.27 98 1011.0
20260504201535 65 153 4.0 10.0 0.05 1.14 1.14 99 1011.3
20260504200242 65 174 4.0 9.0 0.05 1.14 1.14 99 1011.0
20260504194540 64 251 2.0 9.0 0.04 1.13 1.13 98 1010.7
20260504193040 64 293 2.0 8.0 0.02 1.11 1.11 98 1010.8
20260504191542 64 285 2.0 7.0 0.00 1.08 1.08 98 1010.9
20260504190105 64 285 2.0 7.0 0.00 1.08 1.08 98 1011.0
20260504184542 64 260 3.0 7.0 0.00 1.08 1.08 98 1010.9
20260504183040 64 258 3.0 6.0 0.00 1.08 1.08 98 1011.0
20260504181542 64 281 1.0 7.0 0.00 1.07 1.07 98 1011.1